#timestamp,LO_Frequency,Hit,StdDev 
1610935215.4,286046998.5,P
1610935235.2,286046998.3,P
1610935255.1,286047001.1,N
1610935256.0,286047001.1,N
1610935275.8,286046998.3,N
1610935295.6,286046998.5,N
1610935315.5,286046999.2,N
1610935335.3,286046999.5,N
1610935355.2,286046997.3,N
1610935375.9,286046999.2,N
1610935395.7,286047001.0,N
1610935415.6,286046998.2,N
1610935435.4,286046998.6,N
1610935455.2,286046999.0,N
1610935475.1,286046998.2,N
1610935476.0,286046998.2,N
1610935495.8,286047002.8,N
1610935515.7,286047001.9,N
1610935535.5,286047003.5,N
1610935555.3,286046999.7,N
1610935575.2,286047002.4,N
1610935595.0,286047000.9,N
1610935595.9,286047000.9,N
1610935615.8,286046998.5,N
1610935635.6,286046999.5,N
1610935655.4,286046999.6,N
1610935675.3,286046999.3,N
1610935695.1,286046999.2,N
1610935715.8,286046999.2,N
1610935735.7,286046999.2,N
1610935755.5,286046999.5,N
1610935775.4,286046998.6,N
1610935795.2,286046999.2,N
1610935815.0,286046999.4,N
1610935815.9,286046999.4,N
1610935835.8,286046996.8,N
1610935855.6,286046999.4,N
1610935875.5,286046998.7,N
1610935895.3,286046999.3,N
1610935915.1,286046999.1,N
1610935935.9,286046998.4,N
1610935955.7,286046998.1,N
1610935975.5,286046998.2,N
1610935995.4,286046998.6,N
1610936015.2,286047001.1,N
1610936035.1,286047000.9,N
1610936036.0,286047000.9,N
1610936055.8,286047002.4,N
1610936075.6,286047002.8,N
1610936095.5,286047001.2,N
1610936115.3,286046998.6,N
1610936135.2,286046999.4,N
1610936155.9,286046997.1,N
1610936175.7,286046998.7,N
1610936195.6,286046998.3,N
1610936215.4,286047001.1,N
1610936235.2,286047000.7,N
1610936255.1,286046998.1,N
1610936256.0,286046998.1,N
1610936275.8,286046999.4,N
1610936295.7,286046996.6,N
1610936315.5,286046997.4,N
1610936335.3,286046997.5,N
1610936355.2,286046997.2,N
1610936375.0,286046997.5,N
1610936375.9,286046997.5,N
1610936395.8,286046996.1,N
1610936415.6,286046996.4,N
1610936435.4,286046993.6,Y
1610936455.3,286046997.1,P
1610936475.1,286046997.0,P
1610936495.9,286046998.1,N
1610936515.7,286047000.7,N
1610936535.5,286046999.9,N
1610936555.4,286047000.0,N
1610936575.2,286047000.5,N
1610936595.0,286046998.5,N
1610936595.9,286046998.5,N
1610936615.8,286046998.1,N
1610936635.6,286047000.4,N
1610936655.5,286046999.9,N
1610936675.3,286046999.7,N
1610936695.1,286047002.8,N
1610936715.9,286047002.2,N
1610936735.7,286047000.2,N
1610936755.5,286047002.6,N
1610936775.4,286047002.3,N
1610936795.2,286047002.0,N
1610936815.1,286047005.9,Y
1610936816.0,286047005.9,P
1610936835.8,286047006.0,N
1610936855.7,286047004.1,N
1610936875.5,286047002.9,N
1610936895.3,286047003.9,N
1610936915.2,286047000.1,N
1610936935.0,286046999.9,N
1610936935.9,286046999.9,N
1610936955.7,286047001.2,N
1610936975.6,286047000.9,N
1610936995.4,286047001.1,N
1610937015.3,286047000.8,N
1610937035.1,286047001.0,N
1610937055.8,286047000.6,N
1610937075.7,286047002.1,N
1610937095.5,286047001.6,N
1610937115.4,286047004.0,N
1610937135.2,286047002.5,N
1610937155.0,286047001.4,N
1610937155.9,286047001.4,N
1610937175.8,286047002.4,N
1610937195.6,286047000.3,N
1610937215.4,286047000.5,N
1610937235.3,286047002.2,N
1610937255.1,286047002.3,N
1610937275.9,286047002.5,N
1610937295.7,286047002.8,N
1610937315.5,286047000.4,N
1610937335.4,286047000.6,N
1610937355.2,286047000.0,N
1610937375.1,286046998.1,N
1610937376.0,286046998.1,N
1610937395.8,286046998.5,N
1610937415.6,286046999.5,N
1610937435.5,286046997.3,N
1610937455.3,286046997.0,N
1610937475.1,286046999.0,N
1610937495.9,286046999.2,N
1610937515.7,286046999.2,N
1610937535.6,286046999.1,N
1610937555.4,286046996.8,N
1610937575.2,286046996.7,N
1610937595.1,286046996.8,N
1610937596.0,286046996.8,N
1610937615.8,286046998.2,N
1610937635.7,286046998.4,N
1610937655.5,286046998.4,N
1610937675.3,286046999.4,N
1610937695.2,286046996.7,N
1610937715.0,286046996.8,N
1610937715.9,286046996.8,N
1610937735.8,286046998.5,N
1610937755.6,286046999.7,N
1610937775.4,286047000.0,N
1610937795.3,286047000.4,N
1610937815.1,286047004.4,N
1610937835.8,286047003.7,N
1610937855.7,286047007.5,Y
1610937875.5,286047008.6,P
1610937895.4,286047008.4,N
1610937915.2,286047006.4,N
1610937935.0,286047007.6,N
1610937935.9,286047007.6,N
1610937955.8,286047005.2,N
1610937975.6,286047005.6,N
1610937995.5,286047003.3,N
1610938015.3,286047003.1,N
1610938035.1,286047005.6,N
1610938055.9,286047003.5,N
1610938075.7,286047003.5,N
1610938095.5,286047003.1,N
1610938115.4,286047005.7,N
1610938135.2,286047003.2,N
1610938155.1,286047003.4,N
1610938156.0,286047003.4,N
1610938175.8,286047001.3,N
1610938195.6,286047003.6,N
1610938215.5,286047003.8,N
1610938235.3,286047011.9,Y
1610938255.2,286046995.5,P
1610938275.9,286046998.0,N
1610938295.7,286046995.1,N
1610938315.6,286046994.0,N
1610938335.4,286046995.7,N
1610938355.2,286046995.1,N
1610938375.1,286046995.2,N
1610938376.0,286046995.2,N
1610938395.8,286046995.1,N
1610938415.7,286046995.0,N
1610938435.5,286046996.1,N
1610938455.3,286046997.1,N
1610938475.2,286046997.1,N
1610938495.0,286046999.5,N
1610938495.9,286046999.5,N
1610938515.8,286046999.4,N
1610938535.6,286047000.6,N
1610938555.4,286046999.8,N
1610938575.3,286046999.8,N
1610938595.1,286047000.4,N
1610938615.9,286047000.0,N
1610938635.7,286047001.1,N
1610938655.5,286046998.3,N
1610938675.4,286047000.4,N
1610938695.2,286046998.4,N
1610938715.0,286046998.4,N
1610938715.9,286046998.4,N
1610938735.8,286047001.2,N
1610938755.6,286046997.0,N
1610938775.5,286046997.1,N
1610938795.3,286046997.0,N
